Regional Weather Roundup
Issued by NWS

Home | Current Version | Previous Version | Text Only | Print | Product List | Glossary On
Versions: 1 2 3 4 5 6 7 8 9 10 11 12 13 14 15 16 17 18 19 20 21 22 23 24 25 26 27 28 29 30 31 32 33 34 35 36 37 38 39 40 41 42 43 44 45 46 47 48 49 50
134
ASUS42 KTBW 241416
RWRFL
FLORIDA REGIONAL WEATHER ROUNDUP
NATIONAL WEATHER SERVICE TAMPA BAY RUSKIN FL
1000 AM EDT SUN JUL 24 2016

NOTE: "FAIR" INDICATES FEW OR NO CLOUDS BELOW 12,000 FEET WITH NO
SIGNIFICANT WEATHER AND/OR OBSTRUCTIONS TO VISIBILITY.

FLZ001>010-012>015-112-114-115-241500-
PANHANDLE FLORIDA

CITY           SKY/WX    TMP DP  RH WIND       PRES   REMARKS
PENSACOLA      PTSUNNY   84  76  76 E6        30.01S
PENSACOLA NAS  PTSUNNY   86  76  71 NE5       30.01R HX  96
MILTON NAS     PTSUNNY   84  77  79 SE8       30.02
CRESTVIEW      MOSUNNY   85  76  74 E5        30.05R
DUKE FIELD     FAIR      83  75  77 NE3       30.02S
VALPARAISO     MOSUNNY   84  76  78 E5        30.02R
MARY ESTHER    SUNNY     85  76  73 E7        30.01R HX  95
PANAMA CITY    FAIR      85  75  72 NE8       30.02R
TYNDALL AFB    MOSUNNY   84  77  77 E6        30.02S
APALACHICOLA   MOSUNNY   85  77  77 SE7       30.02S HX  95

STATION/POSITION SKY/WX   TEMP    WIND        PRES    WAVE   SWELL
                          AIR SEA DIR/SP/G            HT/PER HT/PER
                          (F)     (DEG/KT/KT) (MB)    (FT/S) (FT/S)
30.1N   87.6W              86 89  120/  2/  4 1016.2R   1/ 3
29.2N   88.2W              85 88  180/  2/  2 1015.5R
28.8N   86.0W              83 88  300/  4/  6 1016.3R   1/ 4
PANAMA CITY BEAC           83 88  110/  5/ 10 1017.0R
TOWER C                    84     160/  7/  7 1017.0F
28.5N   84.5W              82 87  210/  4/  8 1016.5F   2/ 4   2/ 4

$$
FLZ011-016>038-118-127-128-134-139-239-241500-
NORTH FLORIDA

CITY           SKY/WX    TMP DP  RH WIND       PRES   REMARKS
MARIANNA       MOSUNNY   80  77  90 E3        30.04R
TALLAHASSEE    PTSUNNY   85  77  77 E6        30.05R HX  95
PERRY          MOSUNNY   86  76  70 SE3       30.05F HX  96
LIVE OAK       FAIR      88  77  70 CALM      30.08S HX 100
CROSS CITY       N/A     87  75  67 SE3       30.04S HX  96
LAKE CITY      FAIR      82  77  83 CALM      30.06F
GAINESVILLE    SUNNY     87  75  67 N3        30.06S HX  96
WILLISTON      FAIR      88  77  70 CALM      30.06F HX 100
PALATKA        FAIR      84  84 100 CALM      30.07S HX 104
MAYPORT NAS    SUNNY     84  72  67 VRB3      30.06S
JACKSONVILLE   MOSUNNY   86  74  67 W5        30.06S
JAX NAS        MOSUNNY   85  72  65 CALM      30.07S
JAX CECIL      SUNNY     84  75  74 CALM      30.07R
FERNANDINA BEA FAIR      88  75  66 SW3       30.05S HX  97
ST AUGUSTINE   SUNNY     85  74  69 CALM      30.07S
PALM COAST     SUNNY     84  73  70 S3        30.06

STATION/POSITION SKY/WX   TEMP    WIND        PRES    WAVE   SWELL
                          AIR SEA DIR/SP/G            HT/PER HT/PER
                          (F)     (DEG/KT/KT) (MB)    (FT/S) (FT/S)
SHELL POINT                85      70/  2/  4 1015.7
KEATON BEACH               86     160/  4/  5 1016.8F
CEDAR KEY                  83     130/  7/  7 1017.7F
FERNANDINA                 86 89  180/  2/  5 1017.9R
30.7N   81.3W                 86                N/A     2/ 8
MAYPORT                    81 88  230/  4/  6 1018.2R
31.4N   80.9W              84 86  190/ 12/ 14 1017.5R   2/ 4   2/ 8
ST AUGUSTINE               84 85  250/  4/  6 1019.1R

$$
FLZ040-043>046-052-053-057-058-063-144-241500-
INTERIOR CENTRAL FLORIDA

CITY           SKY/WX    TMP DP  RH WIND       PRES   REMARKS
OCALA          SUNNY     84  73  70 CALM      30.06F
THE VILLAGES     N/A     84  77  79 CALM      29.97S
LEESBURG       SUNNY     83  74  74 VRB3      30.07S
SANFORD        MOSUNNY   85  74  69 S5        30.06S
ORLANDO EXEC   SUNNY     84  75  74 CALM      30.07S
ORLANDO INTL   MOSUNNY   84  73  69 E5        30.06F
KISSIMMEE      SUNNY     84  74  71 CALM      30.08S
WINTER HAVEN   SUNNY     83  73  72 CALM      30.07F
LAKELAND       SUNNY     82  75  78 CALM      30.06F
BARTOW         MOSUNNY   82  73  74 CALM      30.07F
OKEECHOBEE     SUNNY     81  73  78 W3        30.07S

$$
FLZ041-047-054-059-064-141-147-241500-
EAST CENTRAL FLORIDA

CITY           SKY/WX    TMP DP  RH WIND       PRES   REMARKS
ORMOND BEACH   SUNNY     84  73  70 CALM      30.07
DAYTONA BEACH  MOSUNNY   86  74  67 CALM      30.06F
NEW SMYRNA BEA SUNNY     84  73  70 SW6       30.08R
JFK SPACE CTR  SUNNY     85  73  66 S3        30.06R
CAPE CANAVERAL MOSUNNY   85  75  73 NW3       30.05F
PATRICK AFB    SUNNY     85  76  72 VRB2      30.06S
MELBOURNE      SUNNY     86  73  65 CALM      30.06S
VERO BEACH     SUNNY     85  71  63 CALM      30.06F
FT PIERCE      SUNNY     86  72  62 VRB3      30.05F
STUART         MOSUNNY   86  73  66 VRB3      30.07

STATION/POSITION SKY/WX   TEMP    WIND        PRES    WAVE   SWELL
                          AIR SEA DIR/SP/G            HT/PER HT/PER
                          (F)     (DEG/KT/KT) (MB)    (FT/S) (FT/S)
28.5N   80.2W              83 86  330/  2/  2 1018.4R
28.9N   78.5W              86 86   70/  2/  2 1018.5R
TRIDENT PIER               84 87  180/  1/  4 1018.3R
28.4N   80.5W                 86                N/A     1/ 9
27.5N   80.2W                 85                N/A     1/ 8

$$
FLZ050-056-061-142-242-148-248-149-249-151-251-155-255-
160-260-241500-
WEST CENTRAL FLORIDA

CITY           SKY/WX    TMP DP  RH WIND       PRES   REMARKS
CRYSTAL RIVER  FAIR      86  72  62 CALM      30.05F
INVERNESS      FAIR      82  75  78 CALM      30.06S
BROOKSVILLE    SUNNY     83  75  77 E5        30.07S
ZEPHYRHILLS    FAIR      79  68  69 S3        30.07S
CLEARWATER AIR FAIR      81  73  78 SE5       30.05S
ST PETE CLEARW SUNNY     84  70  62 SE7       30.05S
TAMPA INTL     MOSUNNY   83  75  77 S8        30.06S
TAMPA EXEC     SUNNY     86  73  66 CALM      30.06S
PLANT CITY       N/A    N/A N/A N/A MISG        N/A
MACDILL AFB    SUNNY     86  77  75 S6        30.05F HX  97
PETER O KNIGHT MOSUNNY   86  75  70 S6        30.06S HX  95
ST PETERSBURG  SUNNY     83  74  74 S7        30.03F
SARASOTA       MOSUNNY   86  73  65 S10       30.03F
VENICE         NOT AVBL

STATION/POSITION SKY/WX   TEMP    WIND        PRES    WAVE   SWELL
                          AIR SEA DIR/SP/G            HT/PER HT/PER
                          (F)     (DEG/KT/KT) (MB)    (FT/S) (FT/S)
27.3N   84.2W                 86                N/A     2/ 4
CLEARWATER BEACH           82 87  140/  5/  9 1017.8R
MIDDLE TAMPA BAY                  200/  7/  9 1018.0R
VENICE                     84 87  170/  6/  7 1016.8F

$$
FLZ066-069-070-075>078-162-262-165-265-241500-
SOUTHWEST FLORIDA AND KEYS

CITY           SKY/WX    TMP DP  RH WIND       PRES   REMARKS
PUNTA GORDA    SUNNY     83  73  72 S6        30.06F
FT MYERS       SUNNY     82  73  74 CALM      30.04F
SOUTHWEST INTL SUNNY     83  73  72 W3        30.05F
NAPLES         MOSUNNY   84  74  71 CALM      30.04F
MARCO ISLAND   MOSUNNY   84  73  70 CALM      30.05S
MARATHON       LGT RAIN N/A N/A N/A SW5       30.09R
KEY WEST INTL  LGT RAIN  79  76  90 E10G22    30.07R

STATION/POSITION SKY/WX   TEMP    WIND        PRES    WAVE   SWELL
                          AIR SEA DIR/SP/G            HT/PER HT/PER
                          (F)     (DEG/KT/KT) (MB)    (FT/S) (FT/S)
NAPLES                        86              1017.6R
26.0N   85.6W              83 86  190/ 10/ 16 1016.4S   1/ 4
DRY TORTUGAS               81     130/ 14/ 15 1017.2F
SAND KEY                   81      80/ 11/ 12 1018.3R
LONG KEY                   79 86  190/  4/  5 1018.6R

$$
FLZ067-068-071>074-168-172>174-241500-
SOUTHEAST FLORIDA

CITY           SKY/WX    TMP DP  RH WIND       PRES   REMARKS
W PALM BEACH   MOSUNNY   85  72  65 CALM      30.06F
FT LAUDER-EXEC CLOUDY    85  74  69 VRB3      30.05F
FT LAUDERDALE  PTSUNNY   85  74  69 N3        30.05S
POMPANO BEACH  MOSUNNY   85  74  69 NE5       30.05F
PEMBROKE PINES PTSUNNY   85  75  72 N3        30.07S
OPA LOCKA      CLOUDY    83  75  77 VRB3      30.06S
MIAMI          CLOUDY    83  75  77 CALM      30.06S
WEST KENDALL   CLOUDY    80  77  90 NW3       30.06R
HOMESTEAD      CLOUDY    82  76  83 W3        30.06R

STATION/POSITION SKY/WX   TEMP    WIND        PRES    WAVE   SWELL
                          AIR SEA DIR/SP/G            HT/PER HT/PER
                          (F)     (DEG/KT/KT) (MB)    (FT/S) (FT/S)
PORT EVERGLADES            80     340/  4/  6 1017.7R
VIRGINIA KEY               82 87  340/  3/  4 1017.8F
LAKE WORTH                         10/  2/  4   N/A
FOWEY ROCKS                84 84  240/  2/  3 1018.3R
SETTLEMENT POINT           84     240/  2/  3 1018.6S

$$





USA.gov is the U.S. government's official web portal to all federal, state and local government web resources and services.